Toledo, OH

7:52 AM EDT on June 25, 2017 (GMT -0400)
Toledo Express

Weather History for KTOL - June, 2012

Change the Weather History Date:

Tuesday, June 5, 2012

  Actual Average Record
Temperature  
Mean Temperature 59 °F 66 °F  
Max Temperature 68 °F 78 °F 98 °F (1925)
Min Temperature 50 °F 55 °F 38 °F (1945)
Degree Days  
Heating Degree Days 6 2  
Month to date heating degree days 21 14  
Since 1 June heating degree days 21 14  
Since 1 July heating degree days 5038 6124  
Cooling Degree Days 0 4  
Month to date cooling degree days 4 17  
Year to date cooling degree days 124 70  
Since 1 June cooling degree days 4 17  
Growing Degree Days 10 (Base 50)    
Moisture  
Dew Point 48 °F    
Average Humidity 66    
Maximum Humidity 86    
Minimum Humidity 45    
Precipitation  
Precipitation 0.01 in 0.12 in 0.78 in (1973)
Month to date precipitation 0.26 0.60  
Year to date precipitation 11.54 13.97  
Snow  
Snow 0.00 in 0.00 in - ()
Month to date snowfall 0.0 0.0  
Since 1 June snowfall 0.0 0.0  
Since 1 July snowfall 20.8 37.6  
Snow Depth 0.00 in    
Sea Level Pressure  
Sea Level Pressure 29.96 in    
Wind  
Wind Speed 9 mph (NNE)    
Max Wind Speed 18 mph    
Max Gust Speed 24 mph    
Visibility 9 miles    
Events Rain    
T = Trace of Precipitation, MM = Missing Value Source: NWS Daily Summary

Daily Weather History Graph

Daily Weather History Graph

Search for Another Location

Airport or City:

Trip Planner

Search our weather history database for the weather conditions in past years. The results will help you decide how hot, cold, wet, or windy it might be!

Date:

Astronomy

Jun. 05, 2012 Rise Set
Actual Time 6:01 AM EDT 9:06 PM EDT
Civil Twilight 5:28 AM EDT 9:39 PM EDT
Nautical Twilight 4:45 AM EDT 10:22 PM EDT
Astronomical Twilight 3:54 AM EDT 11:13 PM EDT
Moon 10:29 PM EDT (6/5) 7:12 AM EDT (6/5)
Length of Visible Light 16h 11m
Length of Day
15h 04m
Full, 98% of the Moon is Illuminated
Jun 5
Full
Jun 11
Last Quarter
Jun 19
New
Jun 26
First Quarter
Jul 3
Full

Hourly Weather History & Observations

Time (EDT) Temp. Dew Point Humidity Pressure Visibility Wind Dir Wind Speed Gust Speed Precip Events Conditions
12:52 AM 59.0 °F 48.9 °F 69% 29.91 in 10.0 mi NNE 8.1 mph - N/A   Clear
1:52 AM 55.9 °F 48.9 °F 77% 29.90 in 10.0 mi North 5.8 mph - N/A   Clear
2:52 AM 54.0 °F 46.9 °F 77% 29.90 in 10.0 mi NNE 8.1 mph - N/A   Clear
3:52 AM 53.1 °F 46.0 °F 77% 29.90 in 10.0 mi North 5.8 mph - N/A   Clear
4:50 AM 51.8 °F 46.4 °F 82% 29.91 in 10.0 mi NNW 5.8 mph - N/A   Mostly Cloudy
4:52 AM 53.1 °F 46.9 °F 80% 29.91 in 10.0 mi NNW 5.8 mph - N/A   Mostly Cloudy
5:52 AM 53.1 °F 46.9 °F 80% 29.92 in 10.0 mi North 10.4 mph - N/A   Overcast
6:18 AM 53.6 °F 48.2 °F 82% 29.93 in 10.0 mi North 10.4 mph - N/A   Scattered Clouds
6:27 AM 53.6 °F 48.2 °F 82% 29.93 in 10.0 mi North 8.1 mph - N/A   Mostly Cloudy
6:52 AM 54.0 °F 48.0 °F 80% 29.94 in 10.0 mi North 6.9 mph - N/A   Overcast
7:29 AM 53.6 °F 51.8 °F 94% 29.95 in 2.5 mi NNE 6.9 mph - 0.00 in Rain Light Rain
7:41 AM 53.6 °F 51.8 °F 94% 29.96 in 2.5 mi North 5.8 mph - 0.01 in Rain Light Rain
7:49 AM 53.6 °F 51.8 °F 94% 29.96 in 7.0 mi North 6.9 mph - 0.01 in Rain Light Rain
7:52 AM 55.0 °F 52.0 °F 89% 29.96 in 8.0 mi North 6.9 mph - 0.01 in   Overcast
8:52 AM 57.0 °F 51.1 °F 81% 29.97 in 10.0 mi NNE 13.8 mph - N/A   Overcast
9:34 AM 60.8 °F 50.0 °F 68% 29.98 in 10.0 mi NE 13.8 mph - N/A   Overcast
9:41 AM 60.8 °F 50.0 °F 68% 29.98 in 10.0 mi NNE 12.7 mph 20.7 mph N/A   Overcast
9:52 AM 61.0 °F 50.0 °F 67% 29.98 in 10.0 mi ENE 13.8 mph - N/A   Overcast
10:28 AM 60.8 °F 46.4 °F 59% 29.99 in 10.0 mi NE 16.1 mph 23.0 mph N/A   Mostly Cloudy
10:52 AM 62.1 °F 46.9 °F 58% 29.99 in 10.0 mi East 16.1 mph 21.9 mph N/A   Mostly Cloudy
10:59 AM 62.6 °F 46.4 °F 55% 29.99 in 10.0 mi NE 15.0 mph 21.9 mph N/A   Mostly Cloudy
11:52 AM 63.0 °F 45.0 °F 52% 30.00 in 10.0 mi NE 10.4 mph 19.6 mph N/A   Mostly Cloudy
12:52 PM 63.0 °F 46.9 °F 56% 30.00 in 10.0 mi NNE 11.5 mph - N/A   Overcast
1:52 PM 63.0 °F 46.0 °F 54% 30.00 in 10.0 mi ENE 13.8 mph 19.6 mph N/A   Overcast
2:52 PM 66.9 °F 46.9 °F 49% 29.99 in 10.0 mi NE 12.7 mph 19.6 mph N/A   Overcast
3:52 PM 66.0 °F 45.0 °F 47% 29.99 in 10.0 mi ENE 12.7 mph - N/A   Mostly Cloudy
4:52 PM 66.9 °F 45.0 °F 45% 29.99 in 10.0 mi East 13.8 mph - N/A   Partly Cloudy
5:52 PM 66.9 °F 45.0 °F 45% 29.99 in 10.0 mi East 11.5 mph 19.6 mph N/A   Partly Cloudy
6:52 PM 64.9 °F 45.0 °F 48% 29.98 in 10.0 mi NE 15.0 mph 21.9 mph N/A   Clear
7:52 PM 64.0 °F 46.0 °F 52% 29.98 in 10.0 mi East 10.4 mph - N/A   Clear
8:52 PM 60.1 °F 44.1 °F 55% 29.99 in 10.0 mi ENE 3.5 mph - N/A   Clear
9:52 PM 55.0 °F 46.0 °F 72% 29.99 in 10.0 mi Calm Calm - N/A   Clear
10:52 PM 54.0 °F 46.9 °F 77% 30.01 in 10.0 mi Calm Calm - N/A   Clear
11:52 PM 53.1 °F 46.0 °F 77% 30.02 in 10.0 mi Calm Calm - N/A   Clear